Location: Mexico
(19.4000°N, 99.1500°W)
Time: 05:36:32
(UTC-06:00)

ISS - Pass Details

Date: 07 April 2020
Orbit: 417 x 419 km, 51.6° (Epoch: 31 May)

Event Time Altitude Azimuth Distance (km) Brightness Sun altitude
Rises 20:51:12 0° 317° (NW) 2,349 1.0 -28.0°
Reaches altitude 10° 20:53:19 10° 314° (NW) 1,485 -0.2 -28.5°
Enters shadow 20:54:13 17° 310° (NW) 1,126 -0.9 -28.7°
